Regional Weather Roundup
Issued by NWS

Home | Current Version | Previous Version | Text Only | Print | Product List | Glossary Off
Versions: 1 2 3 4 5 6 7 8 9 10 11 12 13 14 15 16 17 18 19 20 21 22 23 24 25 26 27 28 29 30 31 32 33 34 35 36 37 38 39 40 41 42 43 44 45 46 47 48 49 50

000
ASUS43 KIND 290409
RWRIN

WEATHER ROUNDUP FOR INDIANA
NATIONAL WEATHER SERVICE INDIANAPOLIS IN
1200 AM EDT FRI MAY 29 2015

NOTE: "FAIR" INDICATES FEW OR NO CLOUDS BELOW 12,000 FEET WITH NO
SIGNIFICANT WEATHER AND/OR OBSTRUCTIONS TO VISIBILITY.

* - STATION DOES NOT REPORT WEATHER SUCH AS PRECIPITATION OR FOG.

+ - STATION NOT QUALITY CONTROLLED BY THE NATIONAL WEATHER SERVICE.
    USE DATA WITH CAUTION...ESPECIALLY DEWPOINT AND RELATIVE
    HUMIDITY OBSERVATIONS.

INZ001>003-010>013-019-020-290500-
NORTHWEST INDIANA

CITY           SKY/WX    TMP DP  RH WIND       PRES   REMARKS
GARY /AIRPORT/ CLEAR     60  59  94 E3        30.07F
KNOX *+        CLEAR     68  55  64 SE9       30.09F
LA PORTE +     PTCLDY    71  59  65 SE9       30.11F
MICHIGAN CITY+ PTCLDY    70  55  60 SE7       30.10F
MONTICELLO +   PTCLDY    71  61  69 S6        30.09F
RENSSELAER +   PTCLDY    72  55  56 SE6       30.09F
VALPARAISO     CLEAR     69  57  65 E8        30.09F

$$

LMZ046-743>745-290500-
SOUTHERN LAKE MICHIGAN

STATION/POSITION TIME  TEMP    WIND        PRES    WAVE
                       AIR SEA DIR/SP/G            HT
                 (UTC) (F)     (DEG/KT/KT) (MB)    (FT)
BURNS HARBOR     0400   75     110/ 10/ 15 1019.0S
MICHIGAN CITY    0400   72      90/ 10/ 13   N/A
5NW MICH CITY    0400   66 57  130/ 10/ 10   N/A     0

$$

INZ004-005-014>016-021>024-290500-
NORTH CENTRAL INDIANA

CITY           SKY/WX    TMP DP  RH WIND       PRES   REMARKS
GOSHEN         CLEAR     69  56  62 SE12      30.13F
LOGANSPORT +   PTCLDY    68  55  64 SE7       30.12F
PERU/GRISSOM   PTCLDY    71  62  73 S7        30.11F
ROCHESTER +    CLEAR     70  61  73 E6        30.12F
SOUTH BEND     PTCLDY    72  57  59 SE12      30.12F
WARSAW +       CLEAR     70  59  68 E10G16    30.13F

$$

INZ006>009-017-018-025>027-290500-
NORTHEAST INDIANA

CITY           SKY/WX    TMP DP  RH WIND       PRES   REMARKS
ANGOLA *+      CLEAR     68  55  64 E9        30.18R
AUBURN +       CLEAR     66  55  68 E8        30.17F
FORT WAYNE     MOCLDY    67  61  81 E8        30.15F
HUNTINGTON +   CLEAR     68  60  75 E3        30.14F

$$

INZ028-029-035-036-043>045-051>053-290500-
WEST CENTRAL INDIANA

CITY           SKY/WX    TMP DP  RH WIND       PRES   REMARKS
CRAWFORDSVL +  PTCLDY    69  58  67 SE6       30.12F
GREENCASTLE +  CLEAR     64  59  82 SE5       30.13F
LAFAYETTE      PTCLDY    71  62  73 S5        30.09F
TERRE HAUTE    CLEAR     72  65  78 SE6       30.10F

$$

INZ030>032-037>040-046>048-054>057-064-065-290500-
CENTRAL INDIANA

CITY           SKY/WX    TMP DP  RH WIND       PRES   REMARKS
CP ATTERBURY + CLEAR     64  63  94 CALM      30.15F
FISHERS *+     PTCLDY    68  64  88 S6        30.13S
FRANKFORT +    PTCLDY    69  62  78 CALM      30.14F
GREENWOOD *+   CLEAR     72  61  68 S6        30.15F
INDIANAPOLIS   PTCLDY    72  62  71 SE8       30.12F
-EAGLE CREEK   CLEAR     73  62  68 S6        30.12F
KOKOMO *+      PTCLDY    72  63  73 S7        30.12F
MARION +       PTCLDY    70  59  67 S6        30.15S
MT COMFORT *+  PTCLDY    72  55  56 S3        30.15F
SHELBYVILLE    PTCLDY    72  63  73 SE6       30.14F
ZIONSVILLE +   PTCLDY    70  60  71 SE6       30.14F

$$

INZ033-034-041-042-049-050-058-059-290500-
EAST CENTRAL INDIANA

CITY           SKY/WX    TMP DP  RH WIND       PRES   REMARKS
MUNCIE         CLEAR     73  62  68 S5        30.15S

$$

INZ060-061-067>069-081>083-085>088-290500-
SOUTHWEST INDIANA

CITY           SKY/WX    TMP DP  RH WIND       PRES   REMARKS
EVANSVILLE     CLEAR     73  65  75 CALM      30.11F
HUNTINGBURG *+ CLEAR     70  64  83 SE8       30.12F
WASHINGTON +   CLEAR     72  64  77 SE7       30.12S

$$

INZ062-063-066-070>080-084-089>092-290500-
SOUTH CENTRAL AND SOUTHEAST INDIANA

CITY           SKY/WX    TMP DP  RH WIND       PRES   REMARKS
BLOOMINGTON    CLEAR     70  64  81 SE5       30.14F
MADISON *+     PTCLDY    70  63  78 SE3       30.18F
NORTH VERNON + CLEAR     68  68 100 CALM      30.16F
SEYMOUR +      CLEAR     70  64  83 S3        30.15S

$$




USA.gov is the U.S. government's official web portal to all federal, state and local government web resources and services.